TimeCDT,TemperatureF,Dew PointF,Humidity,Sea Level PressureIn,VisibilityMPH,Wind Direction,Wind SpeedMPH,Gust SpeedMPH,PrecipitationIn,Events,Conditions,WindDirDegrees,DateUTC
12:53 AM,75.9,72.0,87,29.99,9.0,NE,3.5,-,N/A,,Clear,40,2013-09-08 05:53:00
1:53 AM,75.0,71.1,87,29.97,10.0,ENE,3.5,-,N/A,,Clear,60,2013-09-08 06:53:00
2:53 AM,73.9,70.0,87,29.96,10.0,NE,4.6,-,N/A,,Clear,50,2013-09-08 07:53:00
3:53 AM,75.0,70.0,84,29.96,10.0,NE,3.5,-,N/A,,Clear,50,2013-09-08 08:53:00
4:53 AM,73.0,69.1,87,29.96,10.0,Calm,Calm,-,N/A,,Clear,0,2013-09-08 09:53:00
5:53 AM,73.9,69.1,85,29.96,10.0,ENE,6.9,-,N/A,,Clear,60,2013-09-08 10:53:00
6:53 AM,73.9,69.1,85,29.99,10.0,East,4.6,-,N/A,,Clear,100,2013-09-08 11:53:00
7:53 AM,75.0,70.0,84,30.01,10.0,Calm,Calm,-,N/A,,Clear,0,2013-09-08 12:53:00
8:53 AM,80.1,71.1,74,30.02,10.0,ENE,4.6,-,N/A,,Clear,60,2013-09-08 13:53:00
9:53 AM,84.0,72.0,67,30.01,10.0,ENE,5.8,-,N/A,,Clear,60,2013-09-08 14:53:00
10:53 AM,87.1,72.0,61,30.01,10.0,NE,8.1,-,N/A,,Clear,50,2013-09-08 15:53:00
11:53 AM,88.0,72.0,59,30.00,10.0,East,4.6,-,N/A,,Partly Cloudy,90,2013-09-08 16:53:00
12:53 PM,90.0,72.0,55,29.99,10.0,Variable,3.5,-,N/A,,Scattered Clouds,0,2013-09-08 17:53:00
1:53 PM,91.0,72.0,53,29.97,10.0,ENE,5.8,-,N/A,,Scattered Clouds,70,2013-09-08 18:53:00
2:53 PM,93.0,70.0,47,29.95,10.0,Calm,Calm,-,N/A,,Partly Cloudy,0,2013-09-08 19:53:00
3:53 PM,93.0,70.0,47,29.93,10.0,Calm,Calm,-,N/A,,Mostly Cloudy,0,2013-09-08 20:53:00
4:44 PM,86.0,71.6,62,29.94,10.0,South,10.4,-,N/A,Thunderstorm,Thunderstorm,180,2013-09-08 21:44:00
4:53 PM,86.0,71.1,61,29.95,10.0,South,11.5,-,N/A,Thunderstorm,Thunderstorm,180,2013-09-08 21:53:00
5:19 PM,78.8,71.6,78,29.98,2.0,ENE,25.3,35.7,0.14,Rain-Thunderstorm,Heavy Thunderstorms and Rain,70,2013-09-08 22:19:00
5:26 PM,77.0,71.6,83,29.99,0.8,ENE,11.5,29.9,0.38,Rain-Thunderstorm,Heavy Thunderstorms and Rain,70,2013-09-08 22:26:00
5:33 PM,77.0,71.6,83,29.98,0.8,Variable,5.8,-,0.53,Rain-Thunderstorm,Heavy Thunderstorms and Rain,0,2013-09-08 22:33:00
5:38 PM,78.8,71.6,78,29.98,2.0,ENE,5.8,-,0.53,Rain-Thunderstorm,Light Thunderstorms and Rain,60,2013-09-08 22:38:00
5:45 PM,77.0,71.6,83,29.98,2.5,North,4.6,-,0.60,Rain-Thunderstorm,Heavy Thunderstorms and Rain,10,2013-09-08 22:45:00
5:53 PM,78.1,73.0,84,29.97,8.0,WNW,8.1,-,0.60,Rain-Thunderstorm,Light Thunderstorms and Rain,300,2013-09-08 22:53:00
6:53 PM,79.0,73.9,84,29.95,9.0,Calm,Calm,-,0.00,Thunderstorm,Thunderstorm,0,2013-09-08 23:53:00
7:15 PM,78.8,73.4,83,29.96,9.0,Calm,Calm,-,N/A,,Partly Cloudy,0,2013-09-09 00:15:00
7:53 PM,78.1,73.9,87,29.96,7.0,SSE,3.5,-,N/A,,Clear,150,2013-09-09 00:53:00
8:53 PM,78.1,73.9,87,29.98,9.0,Calm,Calm,-,N/A,,Clear,0,2013-09-09 01:53:00
9:53 PM,78.1,73.0,84,29.98,10.0,Calm,Calm,-,N/A,,Clear,0,2013-09-09 02:53:00
10:53 PM,75.9,72.0,87,29.99,9.0,Calm,Calm,-,N/A,,Clear,0,2013-09-09 03:53:00
11:53 PM,75.9,72.0,87,29.97,10.0,Calm,Calm,-,N/A,,Clear,0,2013-09-09 04:53:00